Location: City of Moscow
(46.7306°N, 116.9989°W)
Time: 05:03:53
(UTC+00:00)

Orbus 7S? - Pass Details

Date: 16 March 2026
Orbit: 354 x 6170 km, 56.9° (Epoch: 30 September)

Event Time Altitude Azimuth Distance (km) Brightness Sun altitude
Rises 12:26:35 0° 182° (S) 10,485 9.6 -16.4°
Reaches altitude 10° 12:34:45 10° 177° (S) 9,646 9.5 -15.1°
Maximum altitude 13:08:17 47° 117° (ESE) 5,784 8.9 -9.4°
Drops below altitude 10° 13:27:18 10° 54° (NE) 5,862 9.5 -6.2°
Sets 13:30:41 0° 48° (NE) 6,325 9.6 -5.6°
